Location: Brantley
(31.5822°N, 86.2569°W)
Time: 07:29:41
(UTC+00:00)

Transit 2A Rocket - Pass Details

Date: 16 February 2026
Orbit: 583 x 900 km, 66.7° (Epoch: 8 March)

Event Time Altitude Azimuth Distance (km) Brightness Sun altitude
Rises 07:18:31 0° 338° (NNW) 3,308 - -63.4°
Reaches altitude 10° 07:21:05 10° 342° (NNW) 2,325 - -63.0°
Maximum altitude 07:26:19 60° 62° (ENE) 827 - -62.2°
Drops below altitude 10° 07:31:02 10° 143° (SE) 2,105 - -61.4°
Sets 07:33:16 0° 146° (SSE) 2,969 - -61.0°
